When you browse on this site, cookies collect data to enhance your experience and personalize the content and advertising you see.
Visit our Privacy Policy to learn more. By continuing to use the site, you agree to this use of cookies and data.
  • In Latvia
  • List of Countries
  • For 7 days
  • Water Temperature
  • Satellite Maps
  • Weather Map
  • Weather Widgets
  • user-avatar
    Login

    Hourly Weather Konstantynowka

    Today, 19 June, Wednesday

    Time Temperature Precipitation Wind Pressure Humidity
    00:00 +18°C° 0 mm 2 mps 741 mmHg 95%
    01:00 +18°C° 0 mm 2 mps 741 mmHg 95%
    02:00 +17°C° 0 mm 2 mps 741 mmHg 95%
    03:00 +17°C° 0 mm 2 mps 740 mmHg 96%
    04:00 +17°C° 0 mm 2 mps 740 mmHg 96%
    05:00 +17°C° 0 mm 2 mps 740 mmHg 97%
    06:00 +18°C° 0 mm 3 mps 740 mmHg 93%
    07:00 +20°C° 0 mm 3 mps 740 mmHg 90%
    08:00 +21°C° 0 mm 3 mps 740 mmHg 86%
    09:00 +24°C° 0.3 mm 3 mps 740 mmHg 81%
    10:00 +25°C° 0.3 mm 3 mps 740 mmHg 76%
    11:00 +27°C° 0.3 mm 2 mps 740 mmHg 71%
    12:00 +28°C° 0.4 mm 2 mps 739 mmHg 67%
    13:00 +28°C° 0.4 mm 2 mps 739 mmHg 62%
    14:00 +29°C° 0.4 mm 2 mps 739 mmHg 57%
    15:00 +29°C° 0.5 mm 2 mps 739 mmHg 62%
    16:00 +28°C° 0.5 mm 2 mps 738 mmHg 66%
    17:00 +28°C° 0.5 mm 2 mps 738 mmHg 70%
    18:00 +27°C° 0.3 mm 2 mps 738 mmHg 75%
    19:00 +25°C° 0.3 mm 2 mps 738 mmHg 80%
    20:00 +24°C° 0.3 mm 2 mps 737 mmHg 85%
    21:00 +23°C° 0 mm 2 mps 737 mmHg 86%
    22:00 +21°C° 0 mm 2 mps 737 mmHg 88%
    23:00 +20°C° 0 mm 2 mps 737 mmHg 89%

    Tomorrow, 20 June, Thursday

    Time Temperature Precipitation Wind Pressure Humidity
    00:00 +20°C° 0 mm 2 mps 737 mmHg 89%
    01:00 +19°C° 0 mm 2 mps 737 mmHg 89%
    02:00 +20°C° 0 mm 1 mps 737 mmHg 90%
    03:00 +20°C° 0 mm 1 mps 737 mmHg 89%
    04:00 +19°C° 0 mm 2 mps 737 mmHg 89%
    05:00 +19°C° 0 mm 2 mps 737 mmHg 89%
    06:00 +21°C° 0 mm 1 mps 737 mmHg 84%
    07:00 +23°C° 0 mm 1 mps 737 mmHg 80%
    08:00 +25°C° 0 mm 1 mps 738 mmHg 76%
    09:00 +26°C° 0.1 mm 1 mps 738 mmHg 70%
    10:00 +27°C° 0.1 mm 1 mps 738 mmHg 65%
    11:00 +29°C° 0.1 mm 1 mps 738 mmHg 60%
    12:00 +29°C° 0.2 mm 2 mps 737 mmHg 58%
    13:00 +30°C° 0.2 mm 2 mps 737 mmHg 57%
    14:00 +30°C° 0.2 mm 2 mps 737 mmHg 56%
    15:00 +30°C° 0.4 mm 2 mps 737 mmHg 58%
    16:00 +29°C° 0.4 mm 2 mps 737 mmHg 61%
    17:00 +29°C° 0.4 mm 2 mps 737 mmHg 64%
    18:00 +27°C° 0.4 mm 2 mps 737 mmHg 70%
    19:00 +26°C° 0.4 mm 1 mps 737 mmHg 76%
    20:00 +24°C° 0.4 mm 1 mps 737 mmHg 83%
    21:00 +23°C° 0 mm 1 mps 737 mmHg 84%
    22:00 +22°C° 0 mm 1 mps 737 mmHg 85%
    23:00 +21°C° 0 mm 1 mps 737 mmHg 86%

    Day after tomorrow, 21 June, Friday

    Time Temperature Precipitation Wind Pressure Humidity
    00:00 +21°C° 0 mm 1 mps 737 mmHg 87%
    01:00 +21°C° 0 mm 1 mps 737 mmHg 87%
    02:00 +20°C° 0 mm 1 mps 737 mmHg 88%
    03:00 +20°C° 0 mm 1 mps 738 mmHg 88%
    04:00 +19°C° 0 mm 2 mps 738 mmHg 88%
    05:00 +19°C° 0 mm 2 mps 738 mmHg 88%
    06:00 +20°C° 0 mm 2 mps 738 mmHg 85%
    07:00 +23°C° 0 mm 2 mps 738 mmHg 83%
    08:00 +24°C° 0 mm 1 mps 739 mmHg 80%
    09:00 +25°C° 0.1 mm 2 mps 739 mmHg 78%
    10:00 +26°C° 0.1 mm 2 mps 739 mmHg 75%
    11:00 +26°C° 0.1 mm 2 mps 739 mmHg 73%
    12:00 +27°C° 0.1 mm 2 mps 739 mmHg 70%
    13:00 +28°C° 0.1 mm 1 mps 739 mmHg 66%
    14:00 +29°C° 0.1 mm 1 mps 739 mmHg 63%
    15:00 +28°C° 0.5 mm 1 mps 738 mmHg 66%
    16:00 +28°C° 0.5 mm 1 mps 738 mmHg 68%
    17:00 +27°C° 0.5 mm 1 mps 738 mmHg 71%
    18:00 +26°C° 0.1 mm 1 mps 738 mmHg 73%
    19:00 +25°C° 0.1 mm 1 mps 738 mmHg 76%
    20:00 +23°C° 0.1 mm 0 mps 738 mmHg 79%
    21:00 +24°C° 0.2 mm 1 mps 738 mmHg 80%
    22:00 +23°C° 0.2 mm 1 mps 739 mmHg 82%
    23:00 +22°C° 0.2 mm 1 mps 739 mmHg 84%

    22 June, Saturday

    Time Temperature Precipitation Wind Pressure Humidity
    00:00 +22°C° 0.2 mm 1 mps 739 mmHg 85%
    01:00 +21°C° 0.2 mm 1 mps 739 mmHg 87%
    02:00 +21°C° 0.2 mm 1 mps 739 mmHg 89%
    03:00 +21°C° 0.6 mm 1 mps 739 mmHg 90%
    04:00 +21°C° 0.6 mm 1 mps 739 mmHg 91%
    05:00 +21°C° 0.6 mm 1 mps 739 mmHg 91%
    06:00 +20°C° 0.1 mm 2 mps 738 mmHg 90%
    07:00 +20°C° 0.1 mm 2 mps 739 mmHg 90%
    08:00 +21°C° 0.1 mm 2 mps 739 mmHg 91%
    09:00 +21°C° 0.6 mm 3 mps 739 mmHg 90%
    10:00 +22°C° 0.6 mm 3 mps 739 mmHg 90%
    11:00 +22°C° 0.6 mm 4 mps 739 mmHg 89%
    12:00 +22°C° 0.8 mm 3 mps 739 mmHg 88%
    13:00 +24°C° 0.8 mm 3 mps 739 mmHg 86%
    14:00 +24°C° 0.8 mm 2 mps 739 mmHg 85%
    15:00 +24°C° 1 mm 2 mps 738 mmHg 84%
    16:00 +25°C° 1 mm 2 mps 738 mmHg 82%
    17:00 +25°C° 1 mm 2 mps 738 mmHg 81%
    18:00 +24°C° 0.4 mm 2 mps 738 mmHg 84%
    19:00 +23°C° 0.4 mm 2 mps 738 mmHg 87%
    20:00 +23°C° 0.4 mm 1 mps 738 mmHg 89%
    21:00 +22°C° 0.2 mm 1 mps 738 mmHg 90%
    22:00 +21°C° 0.2 mm 1 mps 738 mmHg 91%
    23:00 +19°C° 0.2 mm 0 mps 738 mmHg 92%

    23 June, Sunday

    Time Temperature Precipitation Wind Pressure Humidity
    00:00 +19°C° 0.1 mm 0 mps 738 mmHg 93%
    01:00 +20°C° 0.1 mm 1 mps 738 mmHg 93%
    02:00 +20°C° 0.1 mm 1 mps 738 mmHg 94%
    03:00 +20°C° 0.3 mm 1 mps 738 mmHg 95%
    04:00 +19°C° 0.3 mm 1 mps 737 mmHg 95%
    05:00 +19°C° 0.3 mm 1 mps 737 mmHg 96%
    06:00 +20°C° 0.3 mm 1 mps 737 mmHg 93%
    07:00 +20°C° 0.3 mm 2 mps 738 mmHg 90%
    08:00 +23°C° 0.3 mm 2 mps 738 mmHg 87%
    09:00 +24°C° 0.1 mm 2 mps 738 mmHg 81%
    10:00 +25°C° 0.1 mm 2 mps 738 mmHg 76%
    11:00 +26°C° 0.1 mm 3 mps 738 mmHg 70%
    12:00 +26°C° 0.8 mm 3 mps 737 mmHg 71%
    13:00 +27°C° 0.8 mm 3 mps 737 mmHg 72%
    14:00 +27°C° 0.8 mm 3 mps 737 mmHg 73%
    15:00 +25°C° 1.7 mm 4 mps 737 mmHg 79%
    16:00 +22°C° 1.7 mm 5 mps 737 mmHg 84%
    17:00 +21°C° 1.7 mm 6 mps 737 mmHg 90%
    18:00 +20°C° 0 mm 6 mps 738 mmHg 89%
    19:00 +19°C° 0 mm 6 mps 738 mmHg 89%
    20:00 +17°C° 0 mm 5 mps 738 mmHg 88%
    21:00 +16°C° 0 mm 5 mps 739 mmHg 88%
    22:00 +16°C° 0 mm 5 mps 739 mmHg 87%
    23:00 +16°C° 0 mm 5 mps 739 mmHg 87%

    24 June, Monday

    Time Temperature Precipitation Wind Pressure Humidity
    00:00 +16°C° 0 mm 5 mps 739 mmHg 88%
    01:00 +16°C° 0 mm 5 mps 740 mmHg 89%
    02:00 +15°C° 0 mm 5 mps 740 mmHg 90%
    03:00 +15°C° 0.5 mm 5 mps 740 mmHg 92%
    04:00 +15°C° 0.5 mm 5 mps 740 mmHg 94%
    05:00 +15°C° 0.5 mm 6 mps 740 mmHg 96%
    06:00 +15°C° 0.7 mm 6 mps 741 mmHg 96%
    07:00 +15°C° 0.7 mm 6 mps 741 mmHg 96%
    08:00 +14°C° 0.7 mm 6 mps 742 mmHg 95%
    09:00 +14°C° 0.3 mm 6 mps 742 mmHg 95%
    10:00 +14°C° 0.3 mm 6 mps 742 mmHg 95%
    11:00 +14°C° 0.3 mm 6 mps 743 mmHg 95%
    12:00 +14°C° 0.2 mm 6 mps 743 mmHg 95%
    13:00 +14°C° 0.2 mm 6 mps 744 mmHg 94%
    14:00 +14°C° 0.2 mm 5 mps 744 mmHg 93%
    15:00 +14°C° 0 mm 5 mps 744 mmHg 92%
    16:00 +15°C° 0 mm 4 mps 744 mmHg 90%
    17:00 +17°C° 0 mm 4 mps 744 mmHg 89%
    18:00 +17°C° 0 mm 3 mps 744 mmHg 88%
    19:00 +17°C° 0 mm 2 mps 745 mmHg 87%
    20:00 +17°C° 0 mm 2 mps 745 mmHg 86%
    21:00 +17°C° 0 mm 2 mps 745 mmHg 86%
    22:00 +16°C° 0 mm 2 mps 745 mmHg 85%
    23:00 +16°C° 0 mm 3 mps 746 mmHg 85%
    Show more